owner,sensor,date,latitude,longitude,vertical_datum,direction_of_sea_water_velocity,sea_water_speed,upward_sea_water_velocity,qcFlag 
TABS,ioos:station:wmo:42046:1,2012-06-01T00:00:00Z,27.8903,-94.0367,2.0,137.3094292,20.52984413,-99999.0,'11111222,11111222,99999999' 
TABS,ioos:station:wmo:42046:1,2012-06-01T00:30:00Z,27.8903,-94.0367,2.0,143.8897481,20.3617902,-99999.0,'11111222,11111222,99999999' 
TABS,ioos:station:wmo:42046:1,2012-06-01T01:00:00Z,27.8903,-94.0367,2.0,156.3123186,18.61861703,-99999.0,'11111222,11111222,99999999' 
TABS,ioos:station:wmo:42046:1,2012-06-01T01:30:00Z,27.8903,-94.0367,2.0,132.1086319,4.205567738,-99999.0,'11133222,11111222,99999999' 
TABS,ioos:station:wmo:42046:1,2012-06-01T02:00:00Z,27.8903,-94.0367,2.0,128.6484281,7.92581857,-99999.0,'11133222,11111222,99999999' 
TABS,ioos:station:wmo:42046:1,2012-06-01T02:30:00Z,27.8903,-94.0367,2.0,172.6797653,5.101578187,-99999.0,'11133222,11111222,99999999' 
TABS,ioos:station:wmo:42046:1,2012-06-01T03:00:00Z,27.8903,-94.0367,2.0,122.7973075,4.984586242,-99999.0,'11133222,11111222,99999999' 
TABS,ioos:station:wmo:42046:1,2012-06-01T03:30:00Z,27.8903,-94.0367,2.0,128.6359437,3.763787986,-99999.0,'11133222,11111222,99999999' 
TABS,ioos:station:wmo:42046:1,2012-06-01T04:00:00Z,27.8903,-94.0367,2.0,158.4172084,4.376871028,-99999.0,'11133222,11111222,99999999' 
TABS,ioos:station:wmo:42046:1,2012-06-01T04:30:00Z,27.8903,-94.0367,2.0,230.3359919,2.585072533,-99999.0,'11133222,11111222,99999999' 
TABS,ioos:station:wmo:42046:1,2012-06-01T05:00:00Z,27.8903,-94.0367,2.0,263.2106204,3.383725757,-99999.0,'11133222,11111222,99999999' 
TABS,ioos:station:wmo:42046:1,2012-06-01T05:30:00Z,27.8903,-94.0367,2.0,274.3514887,1.845318401,-99999.0,'11133222,11111222,99999999' 
TABS,ioos:station:wmo:42046:1,2012-06-01T06:00:00Z,27.8903,-94.0367,2.0,267.3904433,3.954099139,-99999.0,'11133222,11111222,99999999' 
TABS,ioos:station:wmo:42046:1,2012-06-01T06:30:00Z,27.8903,-94.0367,2.0,271.0216255,5.610891195,-99999.0,'11133222,11111222,99999999' 
TABS,ioos:station:wmo:42046:1,2012-06-01T07:00:00Z,27.8903,-94.0367,2.0,316.7473537,6.494259003,-99999.0,'11133222,11111222,99999999' 
TABS,ioos:station:wmo:42046:1,2012-06-01T07:30:00Z,27.8903,-94.0367,2.0,326.7416567,9.208284314,-99999.0,'11133222,11111222,99999999' 
TABS,ioos:station:wmo:42046:1,2012-06-01T08:00:00Z,27.8903,-94.0367,2.0,318.7588626,9.708243919,-99999.0,'11133222,11111222,99999999' 
TABS,ioos:station:wmo:42046:1,2012-06-01T08:30:00Z,27.8903,-94.0367,2.0,318.4080032,11.53917241,-99999.0,'11111222,11111222,99999999' 
TABS,ioos:station:wmo:42046:1,2012-06-01T09:00:00Z,27.8903,-94.0367,2.0,315.7032945,9.221366493,-99999.0,'11133222,11111222,99999999' 
TABS,ioos:station:wmo:42046:1,2012-06-01T09:30:00Z,27.8903,-94.0367,2.0,324.2503582,9.413798383,-99999.0,'11133222,11111222,99999999' 
TABS,ioos:station:wmo:42046:1,2012-06-01T10:00:00Z,27.8903,-94.0367,2.0,334.9666936,10.37458915,-99999.0,'11111222,11111222,99999999' 
TABS,ioos:station:wmo:42046:1,2012-06-01T10:30:00Z,27.8903,-94.0367,2.0,353.5930781,10.39492665,-99999.0,'11111222,11111222,99999999' 
TABS,ioos:station:wmo:42046:1,2012-06-01T11:00:00Z,27.8903,-94.0367,2.0,1.891360738,12.72693207,-99999.0,'11111222,11111222,99999999' 
TABS,ioos:station:wmo:42046:1,2012-06-01T11:30:00Z,27.8903,-94.0367,2.0,0.000210459,14.6,-99999.0,'11111222,11111222,99999999' 
TABS,ioos:station:wmo:42046:1,2012-06-01T12:00:00Z,27.8903,-94.0367,2.0,12.0922351,14.79834112,-99999.0,'11111222,11111222,99999999' 
TABS,ioos:station:wmo:42046:1,2012-06-01T12:30:00Z,27.8903,-94.0367,2.0,5.389509616,13.84118492,-99999.0,'11111222,11111222,99999999' 
TABS,ioos:station:wmo:42046:1,2012-06-01T13:00:00Z,27.8903,-94.0367,2.0,23.90493046,13.10406426,-99999.0,'11111222,11111222,99999999' 
TABS,ioos:station:wmo:42046:1,2012-06-01T13:30:00Z,27.8903,-94.0367,2.0,29.10582134,16.3438337,-99999.0,'11111222,11111222,99999999' 
TABS,ioos:station:wmo:42046:1,2012-06-01T14:00:00Z,27.8903,-94.0367,2.0,35.30129983,17.46054409,-99999.0,'11111222,11111222,99999999' 
TABS,ioos:station:wmo:42046:1,2012-06-01T14:30:00Z,27.8903,-94.0367,2.0,35.15194154,16.74352711,-99999.0,'11111222,11111222,99999999' 
TABS,ioos:station:wmo:42046:1,2012-06-01T15:00:00Z,27.8903,-94.0367,2.0,33.61515037,19.05674159,-99999.0,'11111222,11111222,99999999' 
TABS,ioos:station:wmo:42046:1,2012-06-01T15:30:00Z,27.8903,-94.0367,2.0,34.61832435,20.71799701,-99999.0,'11111222,11111222,99999999' 
TABS,ioos:station:wmo:42046:1,2012-06-01T16:00:00Z,27.8903,-94.0367,2.0,45.3617139,20.16708705,-99999.0,'11111222,11111222,99999999' 
TABS,ioos:station:wmo:42046:1,2012-06-01T16:30:00Z,27.8903,-94.0367,2.0,48.86662046,20.55287814,-99999.0,'11111222,11111222,99999999' 
TABS,ioos:station:wmo:42046:1,2012-06-01T17:00:00Z,27.8903,-94.0367,2.0,47.83168423,19.03734488,-99999.0,'11111222,11111222,99999999' 
TABS,ioos:station:wmo:42046:1,2012-06-01T17:30:00Z,27.8903,-94.0367,2.0,45.70639721,19.50348687,-99999.0,'11111222,11111222,99999999' 
TABS,ioos:station:wmo:42046:1,2012-06-01T18:00:00Z,27.8903,-94.0367,2.0,44.40377497,17.66448414,-99999.0,'11111222,11111222,99999999' 
TABS,ioos:station:wmo:42046:1,2012-06-01T18:30:00Z,27.8903,-94.0367,2.0,43.46576732,17.42936029,-99999.0,'11111222,11111222,99999999' 
TABS,ioos:station:wmo:42046:1,2012-06-01T19:00:00Z,27.8903,-94.0367,2.0,54.65000293,17.04199519,-99999.0,'11111222,11111222,99999999' 
TABS,ioos:station:wmo:42046:1,2012-06-01T19:30:00Z,27.8903,-94.0367,2.0,61.00583188,17.51520768,-99999.0,'11111222,11111222,99999999' 
TABS,ioos:station:wmo:42046:1,2012-06-01T20:00:00Z,27.8903,-94.0367,2.0,46.38810596,17.22310367,-99999.0,'11111222,11111222,99999999' 
TABS,ioos:station:wmo:42046:1,2012-06-01T20:30:00Z,27.8903,-94.0367,2.0,40.63833935,16.82838376,-99999.0,'11111222,11111222,99999999' 
TABS,ioos:station:wmo:42046:1,2012-06-01T21:00:00Z,27.8903,-94.0367,2.0,29.76645716,16.57724344,-99999.0,'11111222,11111222,99999999' 
TABS,ioos:station:wmo:42046:1,2012-06-01T21:30:00Z,27.8903,-94.0367,2.0,23.30883737,17.08431152,-99999.0,'11111222,11111222,99999999' 
TABS,ioos:station:wmo:42046:1,2012-06-01T22:00:00Z,27.8903,-94.0367,2.0,5.648898096,13.81709448,-99999.0,'11111222,11111222,99999999' 
TABS,ioos:station:wmo:42046:1,2012-06-01T22:30:00Z,27.8903,-94.0367,2.0,354.7591866,13.35583767,-99999.0,'11111222,11111222,99999999' 
TABS,ioos:station:wmo:42046:1,2012-06-01T23:00:00Z,27.8903,-94.0367,2.0,340.8225333,18.29531361,-99999.0,'11111222,11111222,99999999' 
TABS,ioos:station:wmo:42046:1,2012-06-01T23:30:00Z,27.8903,-94.0367,2.0,322.1355797,19.58295177,-99999.0,'11111222,11111222,99999999' 
TABS,ioos:station:wmo:42046:1,2012-06-02T00:00:00Z,27.8903,-94.0367,2.0,326.6282135,22.4878923,-99999.0,'11111222,11111222,99999999' 
TABS,ioos:station:wmo:42046:1,2012-06-02T00:30:00Z,27.8903,-94.0367,2.0,334.658959,22.40603936,-99999.0,'11111222,11111222,99999999' 
TABS,ioos:station:wmo:42046:1,2012-06-02T01:00:00Z,27.8903,-94.0367,2.0,334.6633406,23.57804487,-99999.0,'11111222,11111222,99999999' 
TABS,ioos:station:wmo:42046:1,2012-06-02T01:30:00Z,27.8903,-94.0367,2.0,332.3688758,16.58107958,-99999.0,'11111222,11111222,99999999' 
TABS,ioos:station:wmo:42046:1,2012-06-02T02:00:00Z,27.8903,-94.0367,2.0,340.8149611,14.97150627,-99999.0,'11111222,11111222,99999999' 
TABS,ioos:station:wmo:42046:1,2012-06-02T02:30:00Z,27.8903,-94.0367,2.0,346.9700402,22.93042738,-99999.0,'11111222,11111222,99999999' 
TABS,ioos:station:wmo:42046:1,2012-06-02T03:00:00Z,27.8903,-94.0367,2.0,346.0095026,18.32357225,-99999.0,'11111222,11111222,99999999' 
TABS,ioos:station:wmo:42046:1,2012-06-02T03:30:00Z,27.8903,-94.0367,2.0,353.5255423,27.75704055,-99999.0,'11111222,11111222,99999999' 
TABS,ioos:station:wmo:42046:1,2012-06-02T04:00:00Z,27.8903,-94.0367,2.0,354.9066001,26.24363732,-99999.0,'11111222,11111222,99999999' 
TABS,ioos:station:wmo:42046:1,2012-06-02T04:30:00Z,27.8903,-94.0367,2.0,2.81981415,30.08642385,-99999.0,'11111222,11111222,99999999' 
TABS,ioos:station:wmo:42046:1,2012-06-02T05:00:00Z,27.8903,-94.0367,2.0,0.685920877,31.75227393,-99999.0,'11111222,11111222,99999999' 
TABS,ioos:station:wmo:42046:1,2012-06-02T05:30:00Z,27.8903,-94.0367,2.0,357.6607999,27.68307245,-99999.0,'11111222,11111222,99999999' 
TABS,ioos:station:wmo:42046:1,2012-06-02T06:00:00Z,27.8903,-94.0367,2.0,1.13050749,28.89562251,-99999.0,'11111222,11111222,99999999' 
TABS,ioos:station:wmo:42046:1,2012-06-02T06:30:00Z,27.8903,-94.0367,2.0,356.4676453,25.31810617,-99999.0,'11111222,11111222,99999999' 
TABS,ioos:station:wmo:42046:1,2012-06-02T07:00:00Z,27.8903,-94.0367,2.0,8.522281796,16.33030618,-99999.0,'11111222,11111222,99999999' 
TABS,ioos:station:wmo:42046:1,2012-06-02T07:30:00Z,27.8903,-94.0367,2.0,23.41131268,16.9885432,-99999.0,'11111222,11111222,99999999' 
TABS,ioos:station:wmo:42046:1,2012-06-02T08:00:00Z,27.8903,-94.0367,2.0,62.84695312,15.25078686,-99999.0,'11111222,11111222,99999999' 
TABS,ioos:station:wmo:42046:1,2012-06-02T08:30:00Z,27.8903,-94.0367,2.0,68.18640145,17.38479796,-99999.0,'11111222,11111222,99999999' 
TABS,ioos:station:wmo:42046:1,2012-06-02T09:00:00Z,27.8903,-94.0367,2.0,65.76165292,19.6085925,-99999.0,'11111222,11111222,99999999' 
TABS,ioos:station:wmo:42046:1,2012-06-02T09:30:00Z,27.8903,-94.0367,2.0,72.17030747,19.75901313,-99999.0,'11111222,11111222,99999999' 
TABS,ioos:station:wmo:42046:1,2012-06-02T10:00:00Z,27.8903,-94.0367,2.0,62.67749262,19.28106325,-99999.0,'11111222,11111222,99999999' 
TABS,ioos:station:wmo:42046:1,2012-06-02T10:30:00Z,27.8903,-94.0367,2.0,63.02098625,16.09116528,-99999.0,'11111222,11111222,99999999' 
TABS,ioos:station:wmo:42046:1,2012-06-02T11:00:00Z,27.8903,-94.0367,2.0,63.46880703,22.74528742,-99999.0,'11111222,11111222,99999999' 
TABS,ioos:station:wmo:42046:1,2012-06-02T11:30:00Z,27.8903,-94.0367,2.0,57.55763208,25.98554406,-99999.0,'11111222,11111222,99999999' 
TABS,ioos:station:wmo:42046:1,2012-06-02T12:00:00Z,27.8903,-94.0367,2.0,68.80057545,26.16034595,-99999.0,'11111222,11111222,99999999' 
TABS,ioos:station:wmo:42046:1,2012-06-02T12:30:00Z,27.8903,-94.0367,2.0,63.24045941,26.34103263,-99999.0,'11111222,11111222,99999999' 
TABS,ioos:station:wmo:42046:1,2012-06-02T13:00:00Z,27.8903,-94.0367,2.0,57.16536366,27.68262451,-99999.0,'11111222,11111222,99999999' 
TABS,ioos:station:wmo:42046:1,2012-06-02T13:30:00Z,27.8903,-94.0367,2.0,68.35221046,29.79121011,-99999.0,'11111222,11111222,99999999' 
TABS,ioos:station:wmo:42046:1,2012-06-02T14:00:00Z,27.8903,-94.0367,2.0,70.7039616,31.35119934,-99999.0,'11111222,11111222,99999999' 
TABS,ioos:station:wmo:42046:1,2012-06-02T14:30:00Z,27.8903,-94.0367,2.0,63.72386786,32.82142288,-99999.0,'11111222,11111222,99999999' 
TABS,ioos:station:wmo:42046:1,2012-06-02T15:00:00Z,27.8903,-94.0367,2.0,61.4702896,32.87163519,-99999.0,'11111222,11111222,99999999' 
TABS,ioos:station:wmo:42046:1,2012-06-02T15:30:00Z,27.8903,-94.0367,2.0,69.42241518,34.17016535,-99999.0,'11111222,11111222,99999999' 
TABS,ioos:station:wmo:42046:1,2012-06-02T16:00:00Z,27.8903,-94.0367,2.0,72.81849344,35.27416051,-99999.0,'11111222,11111222,99999999' 
TABS,ioos:station:wmo:42046:1,2012-06-02T16:30:00Z,27.8903,-94.0367,2.0,73.36754354,36.99798103,-99999.0,'11111222,11111222,99999999' 
TABS,ioos:station:wmo:42046:1,2012-06-02T17:00:00Z,27.8903,-94.0367,2.0,75.67003088,34.05972548,-99999.0,'11111222,11111222,99999999' 
TABS,ioos:station:wmo:42046:1,2012-06-02T17:30:00Z,27.8903,-94.0367,2.0,78.11386409,35.49097068,-99999.0,'11111222,11111222,99999999' 
TABS,ioos:station:wmo:42046:1,2012-06-02T18:00:00Z,27.8903,-94.0367,2.0,80.22456965,36.39847936,-99999.0,'11111222,11111222,99999999' 
TABS,ioos:station:wmo:42046:1,2012-06-02T18:30:00Z,27.8903,-94.0367,2.0,82.02364167,36.89696464,-99999.0,'11111222,11111222,99999999' 
TABS,ioos:station:wmo:42046:1,2012-06-02T19:00:00Z,27.8903,-94.0367,2.0,79.47742869,35.53763779,-99999.0,'11111222,11111222,99999999' 
TABS,ioos:station:wmo:42046:1,2012-06-02T19:30:00Z,27.8903,-94.0367,2.0,79.16855668,35.22760849,-99999.0,'11111222,11111222,99999999' 
TABS,ioos:station:wmo:42046:1,2012-06-02T20:00:00Z,27.8903,-94.0367,2.0,82.79613506,36.04452802,-99999.0,'11111222,11111222,99999999' 
TABS,ioos:station:wmo:42046:1,2012-06-02T20:30:00Z,27.8903,-94.0367,2.0,82.82414073,30.74078073,-99999.0,'11111222,11111222,99999999' 
TABS,ioos:station:wmo:42046:1,2012-06-02T21:00:00Z,27.8903,-94.0367,2.0,78.6712281,29.78023674,-99999.0,'11111222,11111222,99999999' 
TABS,ioos:station:wmo:42046:1,2012-06-02T21:30:00Z,27.8903,-94.0367,2.0,74.68388843,29.64282375,-99999.0,'11111222,11111222,99999999' 
TABS,ioos:station:wmo:42046:1,2012-06-02T22:00:00Z,27.8903,-94.0367,2.0,65.84631779,28.59332265,-99999.0,'11111222,11111222,99999999' 
TABS,ioos:station:wmo:42046:1,2012-06-02T22:30:00Z,27.8903,-94.0367,2.0,59.95202395,24.14493943,-99999.0,'11111222,11111222,99999999' 
TABS,ioos:station:wmo:42046:1,2012-06-02T23:00:00Z,27.8903,-94.0367,2.0,58.43694286,21.14864771,-99999.0,'11111222,11111222,99999999' 
TABS,ioos:station:wmo:42046:1,2012-06-02T23:30:00Z,27.8903,-94.0367,2.0,48.67765493,16.9772377,-99999.0,'11111222,11111222,99999999' 
TABS,ioos:station:wmo:42046:1,2012-06-03T00:00:00Z,27.8903,-94.0367,2.0,59.44116814,12.13554284,-99999.0,'11111222,11111222,99999999' 
TABS,ioos:station:wmo:42046:1,2012-06-03T00:30:00Z,27.8903,-94.0367,2.0,33.04565038,11.09470594,-99999.0,'11111222,11111222,99999999' 
TABS,ioos:station:wmo:42046:1,2012-06-03T01:00:00Z,27.8903,-94.0367,2.0,8.42983564,7.844749837,-99999.0,'11133222,11111222,99999999' 
TABS,ioos:station:wmo:42046:1,2012-06-03T01:30:00Z,27.8903,-94.0367,2.0,11.51591892,5.459908424,-99999.0,'11133222,11111222,99999999' 
TABS,ioos:station:wmo:42046:1,2012-06-03T02:00:00Z,27.8903,-94.0367,2.0,329.5130626,2.680615601,-99999.0,'11133222,11111222,99999999' 
TABS,ioos:station:wmo:42046:1,2012-06-03T02:30:00Z,27.8903,-94.0367,2.0,342.637037,7.438978424,-99999.0,'11133222,11111222,99999999' 
TABS,ioos:station:wmo:42046:1,2012-06-03T03:00:00Z,27.8903,-94.0367,2.0,2.731710076,10.4919207,-99999.0,'11111222,11111222,99999999' 
TABS,ioos:station:wmo:42046:1,2012-06-03T03:30:00Z,27.8903,-94.0367,2.0,357.1044553,18.01300086,-99999.0,'11111222,11111222,99999999' 
TABS,ioos:station:wmo:42046:1,2012-06-03T04:00:00Z,27.8903,-94.0367,2.0,2.346647542,21.7382267,-99999.0,'11111222,11111222,99999999' 
TABS,ioos:station:wmo:42046:1,2012-06-03T04:30:00Z,27.8903,-94.0367,2.0,0.742224037,25.48213688,-99999.0,'11111222,11111222,99999999' 
TABS,ioos:station:wmo:42046:1,2012-06-03T05:00:00Z,27.8903,-94.0367,2.0,0.645233522,30.20191385,-99999.0,'11111222,11111222,99999999' 
TABS,ioos:station:wmo:42046:1,2012-06-03T05:30:00Z,27.8903,-94.0367,2.0,3.226697158,32.69182161,-99999.0,'11111222,11111222,99999999' 
TABS,ioos:station:wmo:42046:1,2012-06-03T06:00:00Z,27.8903,-94.0367,2.0,8.246238523,30.05068552,-99999.0,'11111222,11111222,99999999' 
TABS,ioos:station:wmo:42046:1,2012-06-03T06:30:00Z,27.8903,-94.0367,2.0,2.956111504,33.35437752,-99999.0,'11111222,11111222,99999999' 
TABS,ioos:station:wmo:42046:1,2012-06-03T07:00:00Z,27.8903,-94.0367,2.0,2.442042125,28.16557473,-99999.0,'11111222,11111222,99999999' 
TABS,ioos:station:wmo:42046:1,2012-06-03T07:30:00Z,27.8903,-94.0367,2.0,6.192813602,34.30014577,-99999.0,'11111222,11111222,99999999' 
TABS,ioos:station:wmo:42046:1,2012-06-03T08:00:00Z,27.8903,-94.0367,2.0,12.86186593,37.15213722,-99999.0,'11111222,11111222,99999999' 
TABS,ioos:station:wmo:42046:1,2012-06-03T08:30:00Z,27.8903,-94.0367,2.0,14.51315993,37.31054677,-99999.0,'11111222,11111222,99999999' 
TABS,ioos:station:wmo:42046:1,2012-06-03T09:00:00Z,27.8903,-94.0367,2.0,16.33398728,38.2956316,-99999.0,'11111222,11111222,99999999' 
TABS,ioos:station:wmo:42046:1,2012-06-03T09:30:00Z,27.8903,-94.0367,2.0,19.96894127,40.99464477,-99999.0,'11111222,11111222,99999999' 
TABS,ioos:station:wmo:42046:1,2012-06-03T10:00:00Z,27.8903,-94.0367,2.0,20.5629228,39.9449734,-99999.0,'11111222,11111222,99999999' 
TABS,ioos:station:wmo:42046:1,2012-06-03T10:30:00Z,27.8903,-94.0367,2.0,23.49815647,40.45475127,-99999.0,'11111222,11111222,99999999' 
TABS,ioos:station:wmo:42046:1,2012-06-03T11:00:00Z,27.8903,-94.0367,2.0,23.44054616,40.44799377,-99999.0,'11111222,11111222,99999999' 
TABS,ioos:station:wmo:42046:1,2012-06-03T11:30:00Z,27.8903,-94.0367,2.0,27.42487673,41.72972562,-99999.0,'11111222,11111222,99999999' 
TABS,ioos:station:wmo:42046:1,2012-06-03T12:00:00Z,27.8903,-94.0367,2.0,26.66607203,43.18301171,-99999.0,'11111222,11111222,99999999' 
TABS,ioos:station:wmo:42046:1,2012-06-03T12:30:00Z,27.8903,-94.0367,2.0,28.56444106,43.58513508,-99999.0,'11111222,11111222,99999999' 
TABS,ioos:station:wmo:42046:1,2012-06-03T13:00:00Z,27.8903,-94.0367,2.0,27.42129693,45.79531199,-99999.0,'11111222,11111222,99999999' 
TABS,ioos:station:wmo:42046:1,2012-06-03T13:30:00Z,27.8903,-94.0367,2.0,30.14710772,42.94932479,-99999.0,'11111222,11111222,99999999' 
TABS,ioos:station:wmo:42046:1,2012-06-03T14:00:00Z,27.8903,-94.0367,2.0,30.33081929,42.21866886,-99999.0,'11111222,11111222,99999999' 
TABS,ioos:station:wmo:42046:1,2012-06-03T14:30:00Z,27.8903,-94.0367,2.0,44.87871633,40.05061797,-99999.0,'11111222,11111222,99999999' 
TABS,ioos:station:wmo:42046:1,2012-06-03T15:00:00Z,27.8903,-94.0367,2.0,48.32774148,39.22571096,-99999.0,'11111222,11111222,99999999' 
TABS,ioos:station:wmo:42046:1,2012-06-03T15:30:00Z,27.8903,-94.0367,2.0,53.78359907,38.75852035,-99999.0,'11111222,11111222,99999999' 
TABS,ioos:station:wmo:42046:1,2012-06-03T16:00:00Z,27.8903,-94.0367,2.0,58.25933477,40.84957405,-99999.0,'11111222,11111222,99999999' 
TABS,ioos:station:wmo:42046:1,2012-06-03T16:30:00Z,27.8903,-94.0367,2.0,57.54699798,41.24047648,-99999.0,'11111222,11111222,99999999' 
TABS,ioos:station:wmo:42046:1,2012-06-03T17:00:00Z,27.8903,-94.0367,2.0,59.7681237,40.41693828,-99999.0,'11111222,11111222,99999999' 
TABS,ioos:station:wmo:42046:1,2012-06-03T17:30:00Z,27.8903,-94.0367,2.0,57.53391974,43.62880356,-99999.0,'11111222,11111222,99999999' 
TABS,ioos:station:wmo:42046:1,2012-06-03T18:00:00Z,27.8903,-94.0367,2.0,63.86087831,41.51598487,-99999.0,'11111222,11111222,99999999' 
TABS,ioos:station:wmo:42046:1,2012-06-03T18:30:00Z,27.8903,-94.0367,2.0,63.46628586,40.96477145,-99999.0,'11111222,11111222,99999999' 
TABS,ioos:station:wmo:42046:1,2012-06-03T19:00:00Z,27.8903,-94.0367,2.0,63.76686315,35.51829951,-99999.0,'11111222,11111222,99999999' 
TABS,ioos:station:wmo:42046:1,2012-06-03T19:30:00Z,27.8903,-94.0367,2.0,65.56709804,34.49957971,-99999.0,'11111222,11111222,99999999' 
TABS,ioos:station:wmo:42046:1,2012-06-03T20:00:00Z,27.8903,-94.0367,2.0,65.4072222,32.48695123,-99999.0,'11111222,11111222,99999999' 
TABS,ioos:station:wmo:42046:1,2012-06-03T20:30:00Z,27.8903,-94.0367,2.0,58.9850706,28.76203922,-99999.0,'11111222,11111222,99999999' 
TABS,ioos:station:wmo:42046:1,2012-06-03T21:00:00Z,27.8903,-94.0367,2.0,57.70363325,29.42168078,-99999.0,'11111222,11111222,99999999' 
TABS,ioos:station:wmo:42046:1,2012-06-03T21:30:00Z,27.8903,-94.0367,2.0,55.02018293,27.10674639,-99999.0,'11111222,11111222,99999999' 
TABS,ioos:station:wmo:42046:1,2012-06-03T22:00:00Z,27.8903,-94.0367,2.0,54.39264115,27.68672064,-99999.0,'11111222,11111222,99999999' 
TABS,ioos:station:wmo:42046:1,2012-06-03T22:30:00Z,27.8903,-94.0367,2.0,53.13401006,29.98600007,-99999.0,'11111222,11111222,99999999' 
TABS,ioos:station:wmo:42046:1,2012-06-03T23:00:00Z,27.8903,-94.0367,2.0,49.96147204,31.47812733,-99999.0,'11111222,11111222,99999999' 
TABS,ioos:station:wmo:42046:1,2012-06-03T23:30:00Z,27.8903,-94.0367,2.0,46.3815445,31.38344946,-99999.0,'11111222,11111222,99999999' 
TABS,ioos:station:wmo:42046:1,2012-06-04T00:00:00Z,27.8903,-94.0367,2.0,46.49184218,29.87831655,-99999.0,'11111222,11111222,99999999' 
TABS,ioos:station:wmo:42046:1,2012-06-04T00:30:00Z,27.8903,-94.0367,2.0,47.29070992,29.01456186,-99999.0,'11111222,11111222,99999999' 
TABS,ioos:station:wmo:42046:1,2012-06-04T01:00:00Z,27.8903,-94.0367,2.0,44.16436284,28.11755679,-99999.0,'11111222,11111222,99999999' 
TABS,ioos:station:wmo:42046:1,2012-06-04T01:30:00Z,27.8903,-94.0367,2.0,38.20417711,23.36433393,-99999.0,'11111222,11111222,99999999' 
TABS,ioos:station:wmo:42046:1,2012-06-04T02:00:00Z,27.8903,-94.0367,2.0,37.47171108,19.80709216,-99999.0,'11111222,11111222,99999999' 
TABS,ioos:station:wmo:42046:1,2012-06-04T02:30:00Z,27.8903,-94.0367,2.0,34.06991442,22.59898228,-99999.0,'11111222,11111222,99999999' 
TABS,ioos:station:wmo:42046:1,2012-06-04T03:00:00Z,27.8903,-94.0367,2.0,39.83316839,21.35655403,-99999.0,'11111222,11111222,99999999' 
TABS,ioos:station:wmo:42046:1,2012-06-04T03:30:00Z,27.8903,-94.0367,2.0,26.11686998,25.14759034,-99999.0,'11111222,11111222,99999999' 
TABS,ioos:station:wmo:42046:1,2012-06-04T04:00:00Z,27.8903,-94.0367,2.0,27.10117286,32.50937865,-99999.0,'11111222,11111222,99999999' 
TABS,ioos:station:wmo:42046:1,2012-06-04T04:30:00Z,27.8903,-94.0367,2.0,28.71174164,33.90916838,-99999.0,'11111222,11111222,99999999' 
TABS,ioos:station:wmo:42046:1,2012-06-04T05:00:00Z,27.8903,-94.0367,2.0,29.6637683,36.73416393,-99999.0,'11111222,11111222,99999999' 
TABS,ioos:station:wmo:42046:1,2012-06-04T05:30:00Z,27.8903,-94.0367,2.0,31.92788021,35.98378107,-99999.0,'11111222,11111222,99999999' 
TABS,ioos:station:wmo:42046:1,2012-06-04T06:00:00Z,27.8903,-94.0367,2.0,30.85481556,40.53719403,-99999.0,'11111222,11111222,99999999' 
TABS,ioos:station:wmo:42046:1,2012-06-04T06:30:00Z,27.8903,-94.0367,2.0,35.86927937,42.59849763,-99999.0,'11111222,11111222,99999999' 
TABS,ioos:station:wmo:42046:1,2012-06-04T07:00:00Z,27.8903,-94.0367,2.0,38.49089541,40.23209788,-99999.0,'11111222,11111222,99999999' 
TABS,ioos:station:wmo:42046:1,2012-06-04T07:30:00Z,27.8903,-94.0367,2.0,44.33476635,38.36312943,-99999.0,'11111222,11111222,99999999' 
TABS,ioos:station:wmo:42046:1,2012-06-04T08:00:00Z,27.8903,-94.0367,2.0,40.02546277,35.71615041,-99999.0,'11111222,11111222,99999999' 
TABS,ioos:station:wmo:42046:1,2012-06-04T08:30:00Z,27.8903,-94.0367,2.0,43.66506702,40.06140287,-99999.0,'11111222,11111222,99999999' 
TABS,ioos:station:wmo:42046:1,2012-06-04T09:00:00Z,27.8903,-94.0367,2.0,43.17029378,39.6394059,-99999.0,'11111222,11111222,99999999' 
TABS,ioos:station:wmo:42046:1,2012-06-04T09:30:00Z,27.8903,-94.0367,2.0,48.17744683,36.2312793,-99999.0,'11111222,11111222,99999999' 
TABS,ioos:station:wmo:42046:1,2012-06-04T10:00:00Z,27.8903,-94.0367,2.0,50.92636833,35.88654344,-99999.0,'11111222,11111222,99999999' 
TABS,ioos:station:wmo:42046:1,2012-06-04T10:30:00Z,27.8903,-94.0367,2.0,52.42545626,40.48906272,-99999.0,'11111222,11111222,99999999' 
TABS,ioos:station:wmo:42046:1,2012-06-04T11:00:00Z,27.8903,-94.0367,2.0,57.76923182,40.40637202,-99999.0,'11111222,11111222,99999999' 
TABS,ioos:station:wmo:42046:1,2012-06-04T11:30:00Z,27.8903,-94.0367,2.0,61.99474471,44.65944245,-99999.0,'11111222,11111222,99999999' 
TABS,ioos:station:wmo:42046:1,2012-06-04T12:00:00Z,27.8903,-94.0367,2.0,71.6725235,50.5965315,-99999.0,'11111222,11111222,99999999' 
TABS,ioos:station:wmo:42046:1,2012-06-04T12:30:00Z,27.8903,-94.0367,2.0,73.00023935,47.47435518,-99999.0,'11111222,11111222,99999999' 
TABS,ioos:station:wmo:42046:1,2012-06-04T13:00:00Z,27.8903,-94.0367,2.0,69.240662,48.80880658,-99999.0,'11111222,11111222,99999999' 
TABS,ioos:station:wmo:42046:1,2012-06-04T13:30:00Z,27.8903,-94.0367,2.0,70.40533181,48.9019928,-99999.0,'11111222,11111222,99999999' 
TABS,ioos:station:wmo:42046:1,2012-06-04T14:00:00Z,27.8903,-94.0367,2.0,77.50379179,53.42564178,-99999.0,'11111222,11111222,99999999' 
TABS,ioos:station:wmo:42046:1,2012-06-04T14:30:00Z,27.8903,-94.0367,2.0,78.46094594,53.9402132,-99999.0,'11111222,11111222,99999999' 
TABS,ioos:station:wmo:42046:1,2012-06-04T15:00:00Z,27.8903,-94.0367,2.0,82.57123805,56.3832617,-99999.0,'11111222,11111222,99999999' 
TABS,ioos:station:wmo:42046:1,2012-06-04T15:30:00Z,27.8903,-94.0367,2.0,89.15986412,60.01645191,-99999.0,'11111222,11111222,99999999' 
TABS,ioos:station:wmo:42046:1,2012-06-04T16:00:00Z,27.8903,-94.0367,2.0,90.57339975,61.95310242,-99999.0,'11111222,11111222,99999999' 